Date,TemperatureHighF,TemperatureAvgF,TemperatureLowF,DewpointHighF,DewpointAvgF,DewpointLowF,HumidityHigh,HumidityAvg,HumidityLow,PressureMaxIn,PressureMinIn,WindSpeedMaxMPH,WindSpeedAvgMPH,GustSpeedMaxMPH,PrecipitationSumIn
2014-1-1,65.7,44.1,30.9,39.2,27.6,21.1,85,56,27,30.12,29.97,0,0,0,0.00
2014-1-2,72.7,47.6,33.1,34.7,29.5,25.2,82,54,23,30.09,29.88,0,0,0,0.00
2014-1-3,72.3,48.4,33.6,38.4,32.0,27.6,87,58,24,30.00,29.76,0,0,0,0.00
2014-1-4,71.2,49.2,34.2,34.8,23.9,11.6,91,46,14,30.03,29.85,0,0,0,0.00
2014-1-5,72.1,48.7,31.3,23.4,17.0,7.1,60,31,14,30.12,29.94,0,0,0,0.00
2014-1-6,58.3,43.6,33.4,30.2,23.3,16.9,73,46,27,30.21,30.03,0,0,0,0.00
2014-1-7,62.4,44.4,32.7,32.2,27.9,23.3,75,55,27,30.09,29.97,0,0,0,0.00
2014-1-8,60.4,44.0,31.6,38.0,32.0,24.2,82,64,40,30.15,29.97,0,0,0,0.00
2014-1-9,60.4,47.4,36.3,48.0,38.2,32.0,98,72,48,30.12,30.03,0,0,0,0.00
2014-1-10,64.9,47.0,35.6,40.0,35.0,31.8,95,67,35,30.21,30.00,0,0,0,0.00
2014-1-11,59.2,51.2,42.1,46.5,41.8,34.9,91,71,57,30.15,29.91,0,0,0,0.00
2014-1-12,63.1,48.3,31.6,40.7,31.2,26.1,96,57,25,30.27,30.12,0,0,0,0.00
2014-1-13,70.7,51.2,35.4,37.0,31.1,25.1,76,48,26,30.33,30.21,0,0,0,0.00
2014-1-14,78.6,55.1,34.7,33.0,25.3,19.8,79,36,13,30.36,30.18,0,0,0,0.00
2014-1-15,80.8,53.1,34.2,35.8,25.7,18.5,75,39,12,30.27,30.03,0,0,0,0.00
2014-1-16,82.8,53.3,30.2,32.1,24.8,17.4,76,38,11,30.18,29.91,0,0,0,0.00
2014-1-17,78.3,49.3,32.9,33.0,27.3,21.7,75,48,15,30.12,29.94,0,0,0,0.00
2014-1-18,74.1,47.4,31.8,32.1,26.2,19.9,75,48,21,30.06,29.88,0,0,0,0.00
2014-1-19,76.5,47.7,31.8,32.6,26.9,20.3,78,50,18,30.06,29.88,0,0,0,0.00
2014-1-20,77.5,47.2,29.5,32.6,25.3,20.8,77,48,15,30.15,29.94,0,0,0,0.00
2014-1-21,78.3,48.3,32.9,32.5,25.1,19.0,68,45,15,30.21,29.97,0,0,0,0.00
2014-1-22,74.5,48.0,33.1,34.6,28.8,25.8,79,52,22,30.06,29.76,0,0,0,0.00
2014-1-23,78.6,57.7,36.3,30.0,22.4,14.8,70,30,13,29.94,29.71,0,0,0,0.00
2014-1-24,80.6,54.9,37.6,32.2,25.4,19.5,63,35,14,30.15,29.94,0,0,0,0.00
2014-1-25,79.7,53.8,38.1,33.3,26.1,20.7,59,37,13,30.15,29.91,0,0,0,0.00
2014-1-26,75.2,50.5,34.5,33.7,27.7,22.6,73,45,21,30.03,29.82,0,0,0,0.00
2014-1-27,64.6,49.1,36.7,37.0,30.8,24.5,70,51,32,30.03,29.94,0,0,0,0.00
2014-1-28,67.8,55.8,48.9,41.8,36.1,31.7,71,49,30,30.09,30.00,0,0,0,0.00
2014-1-29,59.9,53.8,47.5,57.8,47.7,35.3,97,81,55,30.03,29.82,0,0,0,0.12
2014-1-30,65.1,52.0,42.8,54.2,43.2,35.5,98,75,39,29.82,29.65,0,0,0,0.04
2014-1-31,65.3,47.8,33.8,38.5,26.7,16.6,92,51,18,29.97,29.76,0,0,0,0.00